Weather History for London-Corbin, KY

Change the Weather History Date:

Wednesday, June 12, 2013

  Actual Average Record
Temperature  
Mean Temperature 78 °F 72 °F  
Max Temperature 91 °F 83 °F 91 °F (1984)
Min Temperature 65 °F 61 °F 44 °F (1972)
Degree Days  
Heating Degree Days 0 0  
Month to date heating degree days 0 7  
Since 1 June heating degree days 0 7  
Since 1 July heating degree days 4531 4203  
Cooling Degree Days 13 7  
Month to date cooling degree days 82 74  
Year to date cooling degree days 182 188  
Since 1 June cooling degree days 82 74  
Growing Degree Days 28 (Base 50)    
Moisture  
Dew Point 68 °F    
Average Humidity 74    
Maximum Humidity 100    
Minimum Humidity 47    
Precipitation  
Precipitation 0.00 in 0.15 in 0.94 in (1989)
Month to date precipitation 2.98 1.84  
Year to date precipitation 25.99 22.37  
Sea Level Pressure  
Sea Level Pressure 29.95 in    
Wind  
Wind Speed 6 mph (WSW)    
Max Wind Speed 16 mph    
Max Gust Speed 21 mph    
Visibility 10 miles    
Events      
T = Trace of Precipitation, MM = Missing Value Source: NWS Daily Summary

Daily Weather History Graph

Daily Weather History Graph

Search for Another Location

Airport:

Trip Planner

Search our weather history database for the weather conditions in past years. The results will help you decide how hot, cold, wet, or windy it might be!

Date:

Astronomy

Jun. 12, 2013 Rise Set
Actual Time 6:15 AM EDT 8:56 PM EDT
Civil Twilight 5:45 AM EDT 9:27 PM EDT
Nautical Twilight 5:06 AM EDT 10:06 PM EDT
Astronomical Twilight 4:23 AM EDT 10:49 PM EDT
Moon 9:50 AM EDT (6/12) 11:36 PM EDT (6/12)
Length of Visible Light 15h 42m
Length of Day
14h 40m
Waxing Crescent, 14% of the Moon is Illuminated
Jun 12
Waxing Crescent
Jun 16
First Quarter
Jun 23
Full
Jun 30
Last Quarter
Jul 8
New

Hourly Weather History & Observations

Time (EDT) Temp. Heat Index Dew Point Humidity Pressure Visibility Wind Dir Wind Speed Gust Speed Precip Events Conditions
12:53 AM 68.0 °F - 64.9 °F 90% 29.98 in 7.0 mi Calm Calm - N/A   Clear
1:53 AM 66.9 °F - 64.9 °F 93% 29.98 in 7.0 mi Calm Calm - N/A   Clear
2:53 AM 66.9 °F - 64.0 °F 90% 29.96 in 9.0 mi Calm Calm - N/A   Clear
3:53 AM 66.9 °F - 64.0 °F 90% 29.96 in 10.0 mi Calm Calm - N/A   Clear
4:53 AM 66.9 °F - 64.0 °F 90% 29.97 in 10.0 mi Calm Calm - N/A   Clear
5:53 AM 64.9 °F - 64.0 °F 97% 29.98 in 8.0 mi Calm Calm - N/A   Clear
6:53 AM 66.0 °F - 64.0 °F 93% 29.99 in 10.0 mi Calm Calm - N/A   Clear
7:53 AM 71.1 °F - 66.0 °F 84% 29.99 in 10.0 mi Calm Calm - N/A   Clear
8:53 AM 75.9 °F - 68.0 °F 76% 30.00 in 10.0 mi WSW 5.8 mph - N/A   Clear
9:53 AM 80.1 °F 83.6 °F 71.1 °F 74% 30.01 in 10.0 mi West 9.2 mph - N/A   Clear
10:53 AM 82.9 °F 87.5 °F 71.1 °F 67% 30.01 in 10.0 mi WSW 9.2 mph - N/A   Clear
11:53 AM 87.1 °F 93.6 °F 72.0 °F 61% 30.01 in 10.0 mi West 12.7 mph - N/A   Clear
12:53 PM 88.0 °F 92.9 °F 70.0 °F 55% 30.00 in 10.0 mi West 9.2 mph - N/A   Clear
1:53 PM 89.1 °F 96.0 °F 72.0 °F 57% 29.98 in 10.0 mi WSW 10.4 mph - N/A   Partly Cloudy
2:53 PM 91.0 °F 97.6 °F 71.1 °F 52% 29.96 in 10.0 mi West 11.5 mph 18.4 mph N/A   Clear
3:53 PM 89.1 °F 96.0 °F 72.0 °F 57% 29.95 in 10.0 mi SW 9.2 mph 17.3 mph N/A   Partly Cloudy
4:53 PM 90.0 °F 94.5 °F 69.1 °F 50% 29.92 in 10.0 mi West 12.7 mph - N/A   Partly Cloudy
5:53 PM 89.1 °F 91.3 °F 66.0 °F 46% 29.91 in 10.0 mi SW 8.1 mph - N/A   Clear
6:53 PM 88.0 °F 92.1 °F 69.1 °F 53% 29.89 in 10.0 mi SW 8.1 mph - N/A   Clear
7:53 PM 86.0 °F 89.4 °F 68.0 °F 55% 29.88 in 10.0 mi SW 5.8 mph - N/A   Clear
8:53 PM 82.9 °F 85.8 °F 68.0 °F 60% 29.88 in 10.0 mi SW 5.8 mph - N/A   Clear
9:53 PM 81.0 °F 83.8 °F 68.0 °F 65% 29.87 in 10.0 mi SSW 6.9 mph - N/A   Clear
10:53 PM 79.0 °F - 68.0 °F 69% 29.87 in 10.0 mi SSW 5.8 mph - N/A   Clear
11:53 PM 79.0 °F - 68.0 °F 69% 29.86 in 10.0 mi SW 6.9 mph - N/A   Clear